JLY7058 SBCF-SBPA

Flight info

Callsign JLY7058
Flight time 1h 57m
Altitude 36000
Route DEUCA UZ21 VUNOX UZ38 VUKMO
Aircraft A320/M-SDE3FGHIRWY/LB1

Departure

Time 2026-05-04 23:27
Airport Tancredo Neves International Airport (SBCF)

Arrival

Time 2026-05-05 01:24
Airport Porto Alegre-Salgado Filho International Airport (SBPA)
Time Latitude Longitude Altitude Speed Heading
2026-05-04 23:07 -19.62857 -43.96802 2807 ft 0 kts 50°
2026-05-04 23:17 -19.62861 -43.96808 2802 ft 4 kts 49°
2026-05-04 23:18 -19.62880 -43.96828 2801 ft 4 kts 35°
2026-05-04 23:18 -19.62903 -43.96840 2799 ft 4 kts
2026-05-04 23:18 -19.62920 -43.96835 2801 ft 1 kts 319°
2026-05-04 23:18 -19.62923 -43.96832 2801 ft 0 kts 319°
2026-05-04 23:21 -19.62923 -43.96833 2801 ft 1 kts 319°
2026-05-04 23:21 -19.62909 -43.96845 2803 ft 5 kts 320°
2026-05-04 23:21 -19.62874 -43.96877 2801 ft 9 kts 318°
2026-05-04 23:21 -19.62818 -43.96929 2801 ft 12 kts 320°
2026-05-04 23:22 -19.62784 -43.97008 2798 ft 13 kts 269°
2026-05-04 23:22 -19.62820 -43.97080 2799 ft 11 kts 229°
2026-05-04 23:22 -19.62833 -43.97149 2799 ft 11 kts 313°
2026-05-04 23:22 -19.62765 -43.97209 2799 ft 17 kts 319°
2026-05-04 23:23 -19.62684 -43.97284 2799 ft 18 kts 318°
2026-05-04 23:23 -19.62586 -43.97376 2798 ft 16 kts 320°
2026-05-04 23:23 -19.62507 -43.97447 2798 ft 14 kts 318°
2026-05-04 23:23 -19.62439 -43.97510 2798 ft 12 kts 319°
2026-05-04 23:24 -19.62389 -43.97556 2798 ft 8 kts 320°
2026-05-04 23:24 -19.62351 -43.97592 2798 ft 7 kts 319°
2026-05-04 23:24 -19.62321 -43.97620 2798 ft 5 kts 319°
2026-05-04 23:24 -19.62300 -43.97639 2798 ft 3 kts 319°
2026-05-04 23:25 -19.62285 -43.97658 2798 ft 6 kts 296°
2026-05-04 23:25 -19.62303 -43.97719 2798 ft 13 kts 230°
2026-05-04 23:25 -19.62370 -43.97787 2797 ft 12 kts 190°
2026-05-04 23:25 -19.62413 -43.97761 2797 ft 0 kts 139°
2026-05-04 23:26 -19.62557 -43.97628 2795 ft 64 kts 139°
2026-05-04 23:26 -19.63052 -43.97171 2798 ft 123 kts 139°
2026-05-04 23:26 -19.63829 -43.96453 2801 ft 171 kts 139°
2026-05-04 23:27 -19.64753 -43.95608 3345 ft 174 kts 137°
2026-05-04 23:27 -19.65664 -43.94766 4054 ft 173 kts 136°
2026-05-04 23:27 -19.66583 -43.93903 4548 ft 185 kts 135°
2026-05-04 23:27 -19.67605 -43.92948 4779 ft 207 kts 136°
2026-05-04 23:28 -19.68739 -43.91894 5121 ft 223 kts 136°
2026-05-04 23:28 -19.70051 -43.91003 5737 ft 230 kts 164°
2026-05-04 23:28 -19.71657 -43.91083 6309 ft 242 kts 198°
2026-05-04 23:28 -19.73162 -43.92037 6610 ft 266 kts 224°
2026-05-04 23:29 -19.74513 -43.93484 7041 ft 282 kts 226°
2026-05-04 23:29 -19.75880 -43.95004 7757 ft 287 kts 226°
2026-05-04 23:29 -19.77262 -43.96558 8551 ft 290 kts 226°
2026-05-04 23:29 -19.78652 -43.98121 9360 ft 292 kts 226°
2026-05-04 23:30 -19.80052 -43.99692 10153 ft 294 kts 226°
2026-05-04 23:30 -19.81488 -44.01300 10606 ft 310 kts 226°
2026-05-04 23:30 -19.83025 -44.03020 10778 ft 333 kts 226°
2026-05-04 23:30 -19.84656 -44.04842 10920 ft 356 kts 226°
2026-05-04 23:31 -19.86419 -44.06810 10987 ft 377 kts 226°
2026-05-04 23:31 -19.88267 -44.08872 11187 ft 392 kts 226°
2026-05-04 23:31 -19.90164 -44.10988 11678 ft 398 kts 226°
2026-05-04 23:31 -19.92082 -44.13130 12229 ft 402 kts 226°
2026-05-04 23:32 -19.94019 -44.15293 12759 ft 405 kts 226°
2026-05-04 23:32 -19.95969 -44.17472 13306 ft 409 kts 226°
2026-05-04 23:32 -19.97939 -44.19676 13855 ft 412 kts 226°
2026-05-04 23:32 -19.99917 -44.21894 14342 ft 415 kts 227°
2026-05-04 23:33 -20.01906 -44.24124 14829 ft 417 kts 227°
2026-05-04 23:33 -20.03904 -44.26366 15310 ft 419 kts 227°
2026-05-04 23:33 -20.05920 -44.28625 15791 ft 421 kts 227°
2026-05-04 23:33 -20.07943 -44.30891 16264 ft 423 kts 227°
2026-05-04 23:34 -20.09974 -44.33167 16716 ft 425 kts 227°
2026-05-04 23:34 -20.11983 -44.35419 17161 ft 427 kts 227°
2026-05-04 23:34 -20.14032 -44.37720 17612 ft 428 kts 227°
2026-05-04 23:34 -20.16083 -44.40027 18044 ft 430 kts 227°
2026-05-04 23:35 -20.18142 -44.42347 18477 ft 432 kts 227°
2026-05-04 23:35 -20.20211 -44.44675 18846 ft 433 kts 227°
2026-05-04 23:35 -20.22284 -44.47005 19201 ft 434 kts 227°
2026-05-04 23:35 -20.24370 -44.49348 19563 ft 436 kts 227°
2026-05-04 23:36 -20.26457 -44.51690 19917 ft 437 kts 227°
2026-05-04 23:36 -20.28553 -44.54048 20253 ft 438 kts 227°
2026-05-04 23:36 -20.30646 -44.56408 20590 ft 439 kts 228°
2026-05-04 23:36 -20.32718 -44.58743 20925 ft 440 kts 228°
2026-05-04 23:37 -20.34827 -44.61120 21261 ft 441 kts 228°
2026-05-04 23:37 -20.36937 -44.63499 21557 ft 442 kts 228°
2026-05-04 23:37 -20.39055 -44.65886 21860 ft 443 kts 228°
2026-05-04 23:37 -20.41174 -44.68272 22152 ft 444 kts 228°
2026-05-04 23:38 -20.43300 -44.70671 22429 ft 445 kts 228°
2026-05-04 23:38 -20.45430 -44.73079 22719 ft 446 kts 228°
2026-05-04 23:38 -20.47567 -44.75494 22993 ft 448 kts 228°
2026-05-04 23:38 -20.49858 -44.77761 23259 ft 451 kts 220°
2026-05-04 23:39 -20.52386 -44.79751 23520 ft 452 kts 218°
2026-05-04 23:39 -20.54929 -44.81731 23763 ft 454 kts 218°
2026-05-04 23:39 -20.57483 -44.83728 23978 ft 454 kts 218°
2026-05-04 23:39 -20.60032 -44.85725 24194 ft 455 kts 218°
2026-05-04 23:40 -20.62584 -44.87722 24398 ft 455 kts 218°
2026-05-04 23:40 -20.65145 -44.89721 24595 ft 456 kts 218°
2026-05-04 23:40 -20.67705 -44.91720 24785 ft 456 kts 218°
2026-05-04 23:40 -20.70227 -44.93694 25058 ft 455 kts 219°
2026-05-04 23:41 -20.72775 -44.95691 25346 ft 452 kts 219°
2026-05-04 23:41 -20.75310 -44.97677 25644 ft 450 kts 219°
2026-05-04 23:41 -20.77830 -44.99653 25951 ft 448 kts 219°
2026-05-04 23:41 -20.80345 -45.01627 26258 ft 447 kts 219°
2026-05-04 23:42 -20.82843 -45.03592 26574 ft 445 kts 219°
2026-05-04 23:42 -20.85331 -45.05552 26899 ft 443 kts 219°
2026-05-04 23:42 -20.87805 -45.07508 27230 ft 441 kts 219°
2026-05-04 23:42 -20.90268 -45.09448 27562 ft 439 kts 219°
2026-05-04 23:43 -20.92695 -45.11354 27884 ft 437 kts 219°
2026-05-04 23:43 -20.95143 -45.13275 28237 ft 435 kts 220°
2026-05-04 23:43 -20.97582 -45.15196 28591 ft 433 kts 220°
2026-05-04 23:43 -20.99996 -45.17103 28939 ft 431 kts 220°
2026-05-04 23:44 -21.02411 -45.19012 29295 ft 429 kts 220°
2026-05-04 23:44 -21.04809 -45.20903 29664 ft 427 kts 220°
2026-05-04 23:44 -21.07193 -45.22787 30034 ft 425 kts 220°
2026-05-04 23:44 -21.09564 -45.24664 30382 ft 423 kts 220°
2026-05-04 23:45 -21.11927 -45.26532 30668 ft 421 kts 220°
2026-05-04 23:45 -21.14287 -45.28396 30940 ft 420 kts 220°
2026-05-04 23:45 -21.16637 -45.30251 31198 ft 419 kts 220°
2026-05-04 23:45 -21.18988 -45.32107 31454 ft 419 kts 220°
2026-05-04 23:46 -21.21306 -45.33941 31715 ft 419 kts 220°
2026-05-04 23:46 -21.23644 -45.35793 31982 ft 418 kts 220°
2026-05-04 23:46 -21.25985 -45.37648 32249 ft 417 kts 220°
2026-05-04 23:46 -21.28314 -45.39493 32517 ft 417 kts 220°
2026-05-04 23:47 -21.30648 -45.41339 32769 ft 416 kts 220°
2026-05-04 23:47 -21.32986 -45.43192 33009 ft 416 kts 220°
2026-05-04 23:47 -21.34527 -45.44413 33179 ft 416 kts 220°
2026-05-04 23:47 -21.36856 -45.46257 33440 ft 415 kts 220°
2026-05-04 23:48 -21.39175 -45.48095 33711 ft 415 kts 220°
2026-05-04 23:48 -21.41495 -45.49934 33973 ft 414 kts 220°
2026-05-04 23:48 -21.43814 -45.51774 34237 ft 413 kts 220°
2026-05-04 23:48 -21.46126 -45.53612 34473 ft 413 kts 220°
2026-05-04 23:49 -21.48434 -45.55449 34709 ft 412 kts 220°
2026-05-04 23:49 -21.50708 -45.57259 34942 ft 411 kts 220°
2026-05-04 23:49 -21.53008 -45.59077 35159 ft 410 kts 220°
2026-05-04 23:49 -21.55308 -45.60884 35373 ft 409 kts 220°
2026-05-04 23:50 -21.57606 -45.62683 35588 ft 409 kts 220°
2026-05-04 23:50 -21.59911 -45.64483 35816 ft 408 kts 220°
2026-05-04 23:50 -21.62207 -45.66279 35998 ft 408 kts 220°
2026-05-04 23:50 -21.64495 -45.68074 36159 ft 408 kts 220°
2026-05-04 23:51 -21.69101 -45.71695 36210 ft 413 kts 220°
2026-05-04 23:51 -21.73758 -45.75367 36210 ft 415 kts 220°
2026-05-04 23:52 -21.78415 -45.79042 36217 ft 415 kts 220°
2026-05-04 23:52 -21.83041 -45.82687 36216 ft 414 kts 220°
2026-05-04 23:53 -21.87696 -45.86352 36220 ft 414 kts 220°
2026-05-04 23:53 -21.92352 -45.90027 36245 ft 414 kts 220°
2026-05-04 23:54 -21.96999 -45.93709 36244 ft 414 kts 220°
2026-05-04 23:54 -22.01648 -45.97395 36237 ft 415 kts 220°
2026-05-04 23:55 -22.06306 -46.01079 36237 ft 415 kts 220°
2026-05-04 23:56 -22.13257 -46.06587 36240 ft 415 kts 220°
2026-05-04 23:56 -22.17912 -46.10282 36239 ft 415 kts 220°
2026-05-04 23:57 -22.22558 -46.13974 36255 ft 415 kts 220°
2026-05-04 23:57 -22.27213 -46.17675 36255 ft 415 kts 220°
2026-05-04 23:58 -22.31939 -46.21272 36247 ft 418 kts 213°
2026-05-04 23:58 -22.37258 -46.23903 36241 ft 421 kts 208°
2026-05-04 23:59 -22.42637 -46.26436 36237 ft 421 kts 208°
2026-05-04 23:59 -22.47978 -46.28953 36239 ft 421 kts 208°
2026-05-05 00:00 -22.53358 -46.31495 36266 ft 421 kts 208°
2026-05-05 00:00 -22.58725 -46.34040 36258 ft 421 kts 208°
2026-05-05 00:01 -22.64083 -46.36578 36248 ft 420 kts 208°
2026-05-05 00:01 -22.69441 -46.39118 36245 ft 420 kts 208°
2026-05-05 00:02 -22.74791 -46.41657 36235 ft 420 kts 208°
2026-05-05 00:02 -22.80137 -46.44193 36249 ft 419 kts 208°
2026-05-05 00:03 -22.85490 -46.46734 36237 ft 420 kts 208°
2026-05-05 00:03 -22.90839 -46.49282 36224 ft 420 kts 208°
2026-05-05 00:04 -22.96188 -46.51829 36221 ft 420 kts 208°
2026-05-05 00:04 -23.01545 -46.54373 36217 ft 419 kts 208°
2026-05-05 00:05 -23.06888 -46.56912 36216 ft 419 kts 208°
2026-05-05 00:05 -23.12195 -46.59448 36228 ft 419 kts 208°
2026-05-05 00:06 -23.17533 -46.61999 36220 ft 419 kts 208°
2026-05-05 00:06 -23.22870 -46.64558 36247 ft 418 kts 208°
2026-05-05 00:07 -23.28200 -46.67114 36239 ft 418 kts 208°
2026-05-05 00:07 -23.33530 -46.69671 36239 ft 418 kts 208°
2026-05-05 00:08 -23.38862 -46.72226 36252 ft 419 kts 208°
2026-05-05 00:08 -23.44192 -46.74787 36250 ft 419 kts 208°
2026-05-05 00:09 -23.49523 -46.77358 36248 ft 419 kts 208°
2026-05-05 00:09 -23.54861 -46.79925 36262 ft 419 kts 208°
2026-05-05 00:10 -23.60164 -46.82469 36259 ft 419 kts 208°
2026-05-05 00:10 -23.65505 -46.85036 36272 ft 419 kts 208°
2026-05-05 00:11 -23.70849 -46.87605 36218 ft 420 kts 208°
2026-05-05 00:11 -23.76200 -46.90181 36211 ft 420 kts 208°
2026-05-05 00:12 -23.81545 -46.92767 36205 ft 420 kts 208°
2026-05-05 00:12 -23.86896 -46.95354 36203 ft 421 kts 208°
2026-05-05 00:13 -23.92251 -46.97943 36202 ft 421 kts 208°
2026-05-05 00:13 -23.97573 -47.00521 36193 ft 421 kts 208°
2026-05-05 00:14 -24.02936 -47.03119 36195 ft 421 kts 208°
2026-05-05 00:14 -24.08289 -47.05713 36196 ft 421 kts 208°
2026-05-05 00:15 -24.13613 -47.08296 36186 ft 421 kts 208°
2026-05-05 00:15 -24.18968 -47.10899 36183 ft 420 kts 208°
2026-05-05 00:16 -24.24318 -47.13514 36191 ft 421 kts 208°
2026-05-05 00:16 -24.29382 -47.16642 36184 ft 417 kts 215°
2026-05-05 00:17 -24.34294 -47.20049 36180 ft 417 kts 215°
2026-05-05 00:17 -24.39179 -47.23436 36176 ft 418 kts 215°
2026-05-05 00:18 -24.44094 -47.26850 36169 ft 418 kts 215°
2026-05-05 00:18 -24.49007 -47.30272 36170 ft 418 kts 215°
2026-05-05 00:19 -24.53901 -47.33681 36181 ft 418 kts 215°
2026-05-05 00:19 -24.58811 -47.37107 36169 ft 418 kts 215°
2026-05-05 00:20 -24.63724 -47.40535 36171 ft 418 kts 215°
2026-05-05 00:20 -24.68634 -47.43967 36170 ft 418 kts 215°
2026-05-05 00:21 -24.73545 -47.47401 36169 ft 418 kts 215°
2026-05-05 00:21 -24.78459 -47.50837 36169 ft 418 kts 215°
2026-05-05 00:22 -24.83369 -47.54274 36178 ft 418 kts 215°
2026-05-05 00:22 -24.88243 -47.57696 36174 ft 417 kts 215°
2026-05-05 00:23 -24.93137 -47.61140 36174 ft 417 kts 215°
2026-05-05 00:23 -24.98026 -47.64583 36176 ft 417 kts 215°
2026-05-05 00:24 -25.02915 -47.68021 36175 ft 417 kts 215°
2026-05-05 00:24 -25.07809 -47.71464 36171 ft 417 kts 215°
2026-05-05 00:25 -25.12694 -47.74913 36188 ft 416 kts 215°
2026-05-05 00:25 -25.17580 -47.78357 36183 ft 416 kts 215°
2026-05-05 00:26 -25.22467 -47.81797 36177 ft 416 kts 215°
2026-05-05 00:26 -25.27314 -47.85221 36175 ft 416 kts 215°
2026-05-05 00:27 -25.32193 -47.88674 36171 ft 416 kts 215°
2026-05-05 00:27 -25.37068 -47.92121 36171 ft 416 kts 215°
2026-05-05 00:28 -25.41943 -47.95582 36171 ft 416 kts 215°
2026-05-05 00:28 -25.46814 -47.99049 36180 ft 416 kts 215°
2026-05-05 00:29 -25.51675 -48.02509 36180 ft 415 kts 215°
2026-05-05 00:29 -25.56537 -48.05965 36179 ft 415 kts 215°
2026-05-05 00:30 -25.61397 -48.09428 36178 ft 415 kts 215°
2026-05-05 00:30 -25.66218 -48.12859 36178 ft 415 kts 215°
2026-05-05 00:31 -25.71072 -48.16311 36173 ft 415 kts 215°
2026-05-05 00:31 -25.75925 -48.19766 36177 ft 414 kts 215°
2026-05-05 00:32 -25.80769 -48.23221 36183 ft 413 kts 215°
2026-05-05 00:32 -25.85595 -48.26667 36176 ft 412 kts 215°
2026-05-05 00:33 -25.90415 -48.30112 36175 ft 412 kts 215°
2026-05-05 00:33 -25.95239 -48.33553 36178 ft 412 kts 214°
2026-05-05 00:34 -26.00060 -48.37000 36176 ft 412 kts 215°
2026-05-05 00:34 -26.04874 -48.40456 36180 ft 412 kts 215°
2026-05-05 00:35 -26.08875 -48.43328 36189 ft 412 kts 215°
2026-05-05 00:35 -26.13691 -48.46779 36174 ft 411 kts 215°
2026-05-05 00:36 -26.18503 -48.50226 36190 ft 411 kts 215°
2026-05-05 00:36 -26.23305 -48.53679 36179 ft 411 kts 215°
2026-05-05 00:37 -26.28105 -48.57138 36171 ft 411 kts 215°
2026-05-05 00:37 -26.32903 -48.60606 36183 ft 411 kts 215°
2026-05-05 00:38 -26.37663 -48.64041 36184 ft 410 kts 215°
2026-05-05 00:38 -26.42450 -48.67506 36185 ft 410 kts 214°
2026-05-05 00:39 -26.47231 -48.70966 36194 ft 409 kts 215°
2026-05-05 00:39 -26.51986 -48.74445 36185 ft 409 kts 215°
2026-05-05 00:40 -26.56730 -48.77950 36192 ft 408 kts 215°
2026-05-05 00:40 -26.61462 -48.81456 36188 ft 408 kts 215°
2026-05-05 00:41 -26.66201 -48.84961 36199 ft 408 kts 215°
2026-05-05 00:41 -26.70953 -48.88444 36197 ft 408 kts 215°
2026-05-05 00:42 -26.75708 -48.91907 36196 ft 408 kts 214°
2026-05-05 00:42 -26.80462 -48.95370 36195 ft 408 kts 215°
2026-05-05 00:43 -26.85176 -48.98815 36194 ft 407 kts 215°
2026-05-05 00:43 -26.89915 -49.02292 36194 ft 407 kts 215°
2026-05-05 00:44 -26.94652 -49.05775 36191 ft 407 kts 215°
2026-05-05 00:44 -26.99393 -49.09261 36192 ft 407 kts 215°
2026-05-05 00:45 -27.04133 -49.12737 36190 ft 407 kts 215°
2026-05-05 00:45 -27.08876 -49.16218 36189 ft 407 kts 215°
2026-05-05 00:46 -27.13615 -49.19711 36192 ft 408 kts 215°
2026-05-05 00:46 -27.18360 -49.23212 36195 ft 408 kts 215°
2026-05-05 00:47 -27.23066 -49.26687 36197 ft 407 kts 215°
2026-05-05 00:47 -27.27806 -49.30185 36225 ft 407 kts 215°
2026-05-05 00:48 -27.32539 -49.33682 36212 ft 407 kts 215°
2026-05-05 00:48 -27.37268 -49.37179 36212 ft 407 kts 215°
2026-05-05 00:49 -27.41994 -49.40682 36210 ft 407 kts 215°
2026-05-05 00:49 -27.46725 -49.44188 36217 ft 407 kts 215°
2026-05-05 00:50 -27.51450 -49.47692 36219 ft 407 kts 215°
2026-05-05 00:50 -27.56169 -49.51197 36220 ft 406 kts 215°
2026-05-05 00:51 -27.60896 -49.54697 36228 ft 406 kts 215°
2026-05-05 00:51 -27.65586 -49.58170 36227 ft 406 kts 215°
2026-05-05 00:52 -27.70296 -49.61675 36232 ft 405 kts 216°
2026-05-05 00:52 -27.75002 -49.65181 36228 ft 405 kts 215°
2026-05-05 00:53 -27.79754 -49.68608 36223 ft 405 kts 214°
2026-05-05 00:53 -27.84545 -49.71978 36224 ft 406 kts 214°
2026-05-05 00:54 -27.89338 -49.75363 36238 ft 406 kts 214°
2026-05-05 00:54 -27.94110 -49.78770 36234 ft 406 kts 214°
2026-05-05 00:55 -27.98880 -49.82196 36234 ft 406 kts 215°
2026-05-05 00:55 -28.03644 -49.85620 36227 ft 405 kts 215°
2026-05-05 00:56 -28.08383 -49.89020 36226 ft 405 kts 215°
2026-05-05 00:56 -28.13182 -49.92461 36220 ft 405 kts 215°
2026-05-05 00:57 -28.17919 -49.95863 36216 ft 405 kts 215°
2026-05-05 00:57 -28.22687 -49.99287 36223 ft 405 kts 215°
2026-05-05 00:58 -28.27449 -50.02717 36207 ft 405 kts 215°
2026-05-05 00:58 -28.32225 -50.06154 36202 ft 406 kts 215°
2026-05-05 00:59 -28.36988 -50.09590 36202 ft 406 kts 215°
2026-05-05 00:59 -28.41755 -50.13037 36194 ft 406 kts 215°
2026-05-05 01:00 -28.46523 -50.16483 36195 ft 406 kts 215°
2026-05-05 01:00 -28.51262 -50.19912 36204 ft 406 kts 215°
2026-05-05 01:01 -28.56025 -50.23365 36197 ft 406 kts 215°
2026-05-05 01:01 -28.60788 -50.26821 36193 ft 406 kts 215°
2026-05-05 01:02 -28.65556 -50.30279 36184 ft 406 kts 216°
2026-05-05 01:02 -28.70313 -50.33748 36182 ft 406 kts 216°
2026-05-05 01:03 -28.75015 -50.37313 36176 ft 405 kts 218°
2026-05-05 01:03 -28.79521 -50.41164 36171 ft 404 kts 220°
2026-05-05 01:04 -28.83972 -50.45080 36178 ft 404 kts 220°
2026-05-05 01:04 -28.90701 -50.50871 36168 ft 404 kts 219°
2026-05-05 01:05 -28.95204 -50.54711 35438 ft 405 kts 219°
2026-05-05 01:05 -28.97475 -50.56655 34437 ft 410 kts 219°
2026-05-05 01:05 -28.99763 -50.58618 33379 ft 413 kts 218°
2026-05-05 01:06 -29.02059 -50.60587 32481 ft 412 kts 218°
2026-05-05 01:06 -29.04351 -50.62551 31593 ft 412 kts 218°
2026-05-05 01:06 -29.06643 -50.64515 30676 ft 413 kts 218°
2026-05-05 01:06 -29.08954 -50.66492 29568 ft 417 kts 218°
2026-05-05 01:07 -29.11274 -50.68493 28533 ft 418 kts 219°
2026-05-05 01:07 -29.13395 -50.70697 27498 ft 418 kts 227°
2026-05-05 01:07 -29.15332 -50.73195 26386 ft 421 kts 229°
2026-05-05 01:07 -29.17271 -50.75725 25319 ft 424 kts 229°
2026-05-05 01:08 -29.19224 -50.78266 24280 ft 426 kts 229°
2026-05-05 01:08 -29.21189 -50.80817 23190 ft 429 kts 229°
2026-05-05 01:08 -29.23166 -50.83384 22029 ft 431 kts 229°
2026-05-05 01:08 -29.25140 -50.85954 21194 ft 427 kts 229°
2026-05-05 01:09 -29.27094 -50.88501 20378 ft 424 kts 229°
2026-05-05 01:09 -29.29030 -50.91025 19581 ft 420 kts 230°
2026-05-05 01:09 -29.30952 -50.93530 18805 ft 417 kts 230°
2026-05-05 01:09 -29.32859 -50.96017 17998 ft 414 kts 230°
2026-05-05 01:10 -29.34749 -50.98489 17242 ft 410 kts 230°
2026-05-05 01:10 -29.36617 -51.00933 16538 ft 405 kts 230°
2026-05-05 01:10 -29.38468 -51.03351 15782 ft 402 kts 230°
2026-05-05 01:10 -29.40329 -51.05771 14776 ft 407 kts 230°
2026-05-05 01:11 -29.42190 -51.08182 14412 ft 394 kts 230°
2026-05-05 01:11 -29.43936 -51.10439 14229 ft 363 kts 230°
2026-05-05 01:11 -29.45543 -51.12511 14104 ft 333 kts 230°
2026-05-05 01:11 -29.47023 -51.14421 13984 ft 308 kts 231°
2026-05-05 01:12 -29.48403 -51.16208 13622 ft 293 kts 231°
2026-05-05 01:12 -29.49738 -51.17947 13006 ft 288 kts 231°
2026-05-05 01:12 -29.51050 -51.19664 12351 ft 285 kts 232°
2026-05-05 01:12 -29.52348 -51.21366 11692 ft 282 kts 232°
2026-05-05 01:13 -29.53637 -51.23053 11049 ft 280 kts 232°
2026-05-05 01:13 -29.54918 -51.24723 10415 ft 277 kts 232°
2026-05-05 01:13 -29.56185 -51.26372 10000 ft 272 kts 232°
2026-05-05 01:13 -29.57444 -51.28017 9657 ft 276 kts 232°
2026-05-05 01:14 -29.58713 -51.29670 9235 ft 275 kts 232°
2026-05-05 01:14 -29.59975 -51.31315 8832 ft 274 kts 232°
2026-05-05 01:14 -29.61235 -51.32957 8421 ft 273 kts 230°
2026-05-05 01:14 -29.62687 -51.34378 8000 ft 276 kts 216°
2026-05-05 01:15 -29.64418 -51.35319 7800 ft 277 kts 202°
2026-05-05 01:15 -29.66235 -51.35988 7613 ft 277 kts 202°
2026-05-05 01:15 -29.68070 -51.36666 7413 ft 277 kts 202°
2026-05-05 01:15 -29.69902 -51.37346 7215 ft 276 kts 202°
2026-05-05 01:16 -29.71741 -51.37994 7014 ft 277 kts 196°
2026-05-05 01:16 -29.73650 -51.38356 6734 ft 277 kts 192°
2026-05-05 01:16 -29.75552 -51.38687 6445 ft 276 kts 192°
2026-05-05 01:16 -29.77448 -51.39018 6154 ft 275 kts 192°
2026-05-05 01:17 -29.79336 -51.39350 5872 ft 275 kts 192°
2026-05-05 01:17 -29.81223 -51.39686 5589 ft 272 kts 193°
2026-05-05 01:17 -29.83072 -51.40017 5304 ft 265 kts 193°
2026-05-05 01:17 -29.84873 -51.40338 5051 ft 259 kts 193°
2026-05-05 01:18 -29.86611 -51.40647 4791 ft 253 kts 193°
2026-05-05 01:18 -29.88352 -51.40951 4526 ft 247 kts 191°
2026-05-05 01:18 -29.90043 -51.40911 4274 ft 247 kts 173°
2026-05-05 01:18 -29.91681 -51.40346 4019 ft 244 kts 165°
2026-05-05 01:19 -29.93277 -51.39718 3766 ft 241 kts 165°
2026-05-05 01:19 -29.94864 -51.39100 3510 ft 240 kts 165°
2026-05-05 01:19 -29.96439 -51.38488 3334 ft 235 kts 165°
2026-05-05 01:19 -29.97890 -51.37736 3154 ft 228 kts 145°
2026-05-05 01:20 -29.98834 -51.36362 2945 ft 212 kts 112°
2026-05-05 01:20 -29.99102 -51.34779 2731 ft 194 kts 88°
2026-05-05 01:20 -29.99133 -51.33268 2496 ft 182 kts 87°
2026-05-05 01:20 -29.99162 -51.31849 2274 ft 172 kts 86°
2026-05-05 01:21 -29.99190 -51.30486 2052 ft 168 kts 86°
2026-05-05 01:21 -29.99217 -51.29154 1835 ft 165 kts 86°
2026-05-05 01:21 -29.99244 -51.27838 1620 ft 163 kts 87°
2026-05-05 01:21 -29.99271 -51.26540 1406 ft 161 kts 88°
2026-05-05 01:22 -29.99297 -51.25257 1195 ft 159 kts 88°
2026-05-05 01:22 -29.99323 -51.24005 995 ft 157 kts 88°
2026-05-05 01:22 -29.99348 -51.22759 800 ft 154 kts 90°
2026-05-05 01:22 -29.99373 -51.21537 608 ft 151 kts 90°
2026-05-05 01:23 -29.99395 -51.20337 398 ft 149 kts 91°
2026-05-05 01:23 -29.99420 -51.19134 171 ft 147 kts 92°
2026-05-05 01:23 -29.99445 -51.17975 24 ft 144 kts 91°
2026-05-05 01:23 -29.99465 -51.17092 19 ft 64 kts 91°
2026-05-05 01:24 -29.99465 -51.16776 20 ft 16 kts 77°
2026-05-05 01:24 -29.99385 -51.16741 20 ft 9 kts
2026-05-05 01:24 -29.99328 -51.16738 21 ft 7 kts
2026-05-05 01:24 -29.99285 -51.16750 21 ft 7 kts 317°
2026-05-05 01:25 -29.99278 -51.16815 21 ft 8 kts 271°
2026-05-05 01:25 -29.99277 -51.16873 21 ft 7 kts 271°
2026-05-05 01:25 -29.99277 -51.16923 21 ft 6 kts 271°
2026-05-05 01:25 -29.99276 -51.16952 21 ft 5 kts 271°
2026-05-05 01:26 -29.99276 -51.16990 21 ft 4 kts 271°
2026-05-05 01:26 -29.99276 -51.17023 21 ft 4 kts 271°
2026-05-05 01:26 -29.99275 -51.17052 21 ft 3 kts 271°
2026-05-05 01:26 -29.99275 -51.17076 21 ft 3 kts 270°
2026-05-05 01:27 -29.99275 -51.17096 20 ft 2 kts 270°